<?xml version="1.0" encoding="UTF-8" standalone="no" ?>
<gpx xmlns="http://www.topografix.com/GPX/1/1" xmlns:xsi="http://www.w3.org/2001/XMLSchema-instance" xsi:schemaLocation="http://www.topografix.com/GPX/1/1 http://www.topografix.com/GPX/1/1/gpx.xsd" version="1.1" creator="VisuGPX - https://www.visugpx.com">
  <metadata>
    <name>bipertt2019 grand parcours</name>
  </metadata>
  <trk>
    <name><![CDATA[bipertt2019-essai]]></name>
    <trkseg>
      <trkpt lat="43.33915" lon="-1.44687">
        <ele>76.3</ele>
        <time>2019-03-03T17:47:58Z</time>
      </trkpt>
      <trkpt lat="43.33816" lon="-1.44644">
        <ele>76.8</ele>
        <time>2019-03-03T17:47:58Z</time>
      </trkpt>
      <trkpt lat="43.33691" lon="-1.44642">
        <ele>78.3</ele>
        <time>2019-03-03T17:47:58Z</time>
      </trkpt>
      <trkpt lat="43.33825" lon="-1.45177">
        <ele>67.8</ele>
        <time>2019-03-03T17:47:58Z</time>
      </trkpt>
      <trkpt lat="43.33658" lon="-1.45185">
        <ele>81.6</ele>
        <time>2019-03-03T17:47:58Z</time>
      </trkpt>
      <trkpt lat="43.33311" lon="-1.45325">
        <ele>104.7</ele>
        <time>2019-03-03T17:47:58Z</time>
      </trkpt>
      <trkpt lat="43.33311" lon="-1.45325">
        <ele>104.7</ele>
        <time>2019-03-03T17:47:58Z</time>
      </trkpt>
      <trkpt lat="43.33203" lon="-1.45378">
        <ele>107.2</ele>
        <time>2019-03-03T17:47:58Z</time>
      </trkpt>
      <trkpt lat="43.33136" lon="-1.45494">
        <ele>108.6</ele>
        <time>2019-03-03T17:47:58Z</time>
      </trkpt>
      <trkpt lat="43.33134" lon="-1.45375">
        <ele>103.7</ele>
        <time>2019-03-03T17:47:58Z</time>
      </trkpt>
      <trkpt lat="43.33107" lon="-1.45283">
        <ele>99.7</ele>
        <time>2019-03-03T17:47:58Z</time>
      </trkpt>
      <trkpt lat="43.33073" lon="-1.45307">
        <ele>101.1</ele>
        <time>2019-03-03T17:47:58Z</time>
      </trkpt>
      <trkpt lat="43.3304" lon="-1.45386">
        <ele>110.8</ele>
        <time>2019-03-03T17:47:58Z</time>
      </trkpt>
      <trkpt lat="43.32892" lon="-1.45291">
        <ele>142.3</ele>
        <time>2019-03-03T17:47:58Z</time>
      </trkpt>
      <trkpt lat="43.32856" lon="-1.45489">
        <ele>162.3</ele>
        <time>2019-03-03T17:47:58Z</time>
      </trkpt>
      <trkpt lat="43.32553" lon="-1.45795">
        <ele>187</ele>
        <time>2019-03-03T17:47:58Z</time>
      </trkpt>
      <trkpt lat="43.32405" lon="-1.46038">
        <ele>214.6</ele>
        <time>2019-03-03T17:47:58Z</time>
      </trkpt>
      <trkpt lat="43.32303" lon="-1.46032">
        <ele>212.4</ele>
        <time>2019-03-03T17:47:58Z</time>
      </trkpt>
      <trkpt lat="43.32159" lon="-1.45972">
        <ele>227.3</ele>
        <time>2019-03-03T17:47:58Z</time>
      </trkpt>
      <trkpt lat="43.32011" lon="-1.45903">
        <ele>243.3</ele>
        <time>2019-03-03T17:47:58Z</time>
      </trkpt>
      <trkpt lat="43.319" lon="-1.45935">
        <ele>239.7</ele>
        <time>2019-03-03T17:47:58Z</time>
      </trkpt>
      <trkpt lat="43.31789" lon="-1.45953">
        <ele>241</ele>
        <time>2019-03-03T17:47:58Z</time>
      </trkpt>
      <trkpt lat="43.3166" lon="-1.46156">
        <ele>253.1</ele>
        <time>2019-03-03T17:47:58Z</time>
      </trkpt>
      <trkpt lat="43.31524" lon="-1.46225">
        <ele>257.8</ele>
        <time>2019-03-03T17:47:58Z</time>
      </trkpt>
      <trkpt lat="43.31462" lon="-1.46241">
        <ele>262.2</ele>
        <time>2019-03-03T17:47:58Z</time>
      </trkpt>
      <trkpt lat="43.31362" lon="-1.46375">
        <ele>272.7</ele>
        <time>2019-03-03T17:47:58Z</time>
      </trkpt>
      <trkpt lat="43.31213" lon="-1.46404">
        <ele>302.3</ele>
        <time>2019-03-03T17:47:58Z</time>
      </trkpt>
      <trkpt lat="43.31122" lon="-1.46491">
        <ele>329.2</ele>
        <time>2019-03-03T17:47:58Z</time>
      </trkpt>
      <trkpt lat="43.31222" lon="-1.46531">
        <ele>313.3</ele>
        <time>2019-03-03T17:47:58Z</time>
      </trkpt>
      <trkpt lat="43.31147" lon="-1.46879">
        <ele>356.9</ele>
        <time>2019-03-03T17:47:58Z</time>
      </trkpt>
      <trkpt lat="43.31032" lon="-1.46695">
        <ele>383.5</ele>
        <time>2019-03-03T17:47:58Z</time>
      </trkpt>
      <trkpt lat="43.31051" lon="-1.47032">
        <ele>404.9</ele>
        <time>2019-03-03T17:47:58Z</time>
      </trkpt>
      <trkpt lat="43.30984" lon="-1.4713">
        <ele>422.1</ele>
        <time>2019-03-03T17:47:58Z</time>
      </trkpt>
      <trkpt lat="43.30827" lon="-1.47088">
        <ele>465.5</ele>
        <time>2019-03-03T17:47:58Z</time>
      </trkpt>
      <trkpt lat="43.308" lon="-1.47109">
        <ele>464.8</ele>
        <time>2019-03-03T17:47:58Z</time>
      </trkpt>
      <trkpt lat="43.308" lon="-1.47014">
        <ele>480.8</ele>
        <time>2019-03-03T17:47:58Z</time>
      </trkpt>
      <trkpt lat="43.30742" lon="-1.46937">
        <ele>474.9</ele>
        <time>2019-03-03T17:47:58Z</time>
      </trkpt>
      <trkpt lat="43.30571" lon="-1.46961">
        <ele>473.7</ele>
        <time>2019-03-03T17:47:58Z</time>
      </trkpt>
      <trkpt lat="43.3045" lon="-1.46858">
        <ele>460.3</ele>
        <time>2019-03-03T17:47:58Z</time>
      </trkpt>
      <trkpt lat="43.30353" lon="-1.46776">
        <ele>476.8</ele>
        <time>2019-03-03T17:47:58Z</time>
      </trkpt>
      <trkpt lat="43.3028" lon="-1.46565">
        <ele>483.5</ele>
        <time>2019-03-03T17:47:58Z</time>
      </trkpt>
      <trkpt lat="43.30235" lon="-1.46515">
        <ele>494.6</ele>
        <time>2019-03-03T17:47:58Z</time>
      </trkpt>
      <trkpt lat="43.30216" lon="-1.46378">
        <ele>496</ele>
        <time>2019-03-03T17:47:58Z</time>
      </trkpt>
      <trkpt lat="43.30139" lon="-1.46278">
        <ele>514.4</ele>
        <time>2019-03-03T17:47:58Z</time>
      </trkpt>
      <trkpt lat="43.30028" lon="-1.46114">
        <ele>539.8</ele>
        <time>2019-03-03T17:47:58Z</time>
      </trkpt>
      <trkpt lat="43.29896" lon="-1.46027">
        <ele>554.8</ele>
        <time>2019-03-03T17:47:58Z</time>
      </trkpt>
      <trkpt lat="43.29899" lon="-1.45903">
        <ele>575.1</ele>
        <time>2019-03-03T17:47:58Z</time>
      </trkpt>
      <trkpt lat="43.29926" lon="-1.45787">
        <ele>580.6</ele>
        <time>2019-03-03T17:47:58Z</time>
      </trkpt>
      <trkpt lat="43.29915" lon="-1.45692">
        <ele>570.8</ele>
        <time>2019-03-03T17:47:58Z</time>
      </trkpt>
      <trkpt lat="43.29947" lon="-1.45575">
        <ele>562.2</ele>
        <time>2019-03-03T17:47:58Z</time>
      </trkpt>
      <trkpt lat="43.29915" lon="-1.45483">
        <ele>547.9</ele>
        <time>2019-03-03T17:47:58Z</time>
      </trkpt>
      <trkpt lat="43.29986" lon="-1.45264">
        <ele>498.8</ele>
        <time>2019-03-03T17:47:58Z</time>
      </trkpt>
      <trkpt lat="43.29965" lon="-1.45127">
        <ele>472.6</ele>
        <time>2019-03-03T17:47:58Z</time>
      </trkpt>
      <trkpt lat="43.29909" lon="-1.45056">
        <ele>475.6</ele>
        <time>2019-03-03T17:47:58Z</time>
      </trkpt>
      <trkpt lat="43.29934" lon="-1.44866">
        <ele>419.6</ele>
        <time>2019-03-03T17:47:58Z</time>
      </trkpt>
      <trkpt lat="43.29861" lon="-1.44715">
        <ele>422.5</ele>
        <time>2019-03-03T17:47:58Z</time>
      </trkpt>
      <trkpt lat="43.29811" lon="-1.4466">
        <ele>432.2</ele>
        <time>2019-03-03T17:47:58Z</time>
      </trkpt>
      <trkpt lat="43.29754" lon="-1.44596">
        <ele>430.5</ele>
        <time>2019-03-03T17:47:58Z</time>
      </trkpt>
      <trkpt lat="43.29696" lon="-1.44475">
        <ele>424.1</ele>
        <time>2019-03-03T17:47:58Z</time>
      </trkpt>
      <trkpt lat="43.29684" lon="-1.44404">
        <ele>418.1</ele>
        <time>2019-03-03T17:47:58Z</time>
      </trkpt>
      <trkpt lat="43.29554" lon="-1.44274">
        <ele>456.3</ele>
        <time>2019-03-03T17:47:58Z</time>
      </trkpt>
      <trkpt lat="43.29444" lon="-1.44121">
        <ele>495.7</ele>
        <time>2019-03-03T17:47:58Z</time>
      </trkpt>
      <trkpt lat="43.29391" lon="-1.44105">
        <ele>488.3</ele>
        <time>2019-03-03T17:47:58Z</time>
      </trkpt>
      <trkpt lat="43.29325" lon="-1.43971">
        <ele>514.6</ele>
        <time>2019-03-03T17:47:58Z</time>
      </trkpt>
      <trkpt lat="43.29239" lon="-1.43947">
        <ele>492.8</ele>
        <time>2019-03-03T17:47:58Z</time>
      </trkpt>
      <trkpt lat="43.29204" lon="-1.4386">
        <ele>512.8</ele>
        <time>2019-03-03T17:47:58Z</time>
      </trkpt>
      <trkpt lat="43.29126" lon="-1.43768">
        <ele>531.8</ele>
        <time>2019-03-03T17:47:58Z</time>
      </trkpt>
      <trkpt lat="43.29053" lon="-1.43844">
        <ele>508.7</ele>
        <time>2019-03-03T17:47:58Z</time>
      </trkpt>
      <trkpt lat="43.28928" lon="-1.43836">
        <ele>549.9</ele>
        <time>2019-03-03T17:47:58Z</time>
      </trkpt>
      <trkpt lat="43.28857" lon="-1.43873">
        <ele>558.2</ele>
        <time>2019-03-03T17:47:58Z</time>
      </trkpt>
      <trkpt lat="43.28822" lon="-1.43918">
        <ele>570.7</ele>
        <time>2019-03-03T17:47:58Z</time>
      </trkpt>
      <trkpt lat="43.28741" lon="-1.43965">
        <ele>590</ele>
        <time>2019-03-03T17:47:58Z</time>
      </trkpt>
      <trkpt lat="43.28609" lon="-1.43944">
        <ele>628.3</ele>
        <time>2019-03-03T17:47:58Z</time>
      </trkpt>
      <trkpt lat="43.28494" lon="-1.43902">
        <ele>636.1</ele>
        <time>2019-03-03T17:47:58Z</time>
      </trkpt>
      <trkpt lat="43.28332" lon="-1.44002">
        <ele>635.1</ele>
        <time>2019-03-03T17:47:58Z</time>
      </trkpt>
      <trkpt lat="43.28207" lon="-1.43992">
        <ele>656.9</ele>
        <time>2019-03-03T17:47:58Z</time>
      </trkpt>
      <trkpt lat="43.28109" lon="-1.44082">
        <ele>638.3</ele>
        <time>2019-03-03T17:47:58Z</time>
      </trkpt>
      <trkpt lat="43.28056" lon="-1.44126">
        <ele>626.9</ele>
        <time>2019-03-03T17:47:58Z</time>
      </trkpt>
      <trkpt lat="43.27962" lon="-1.44179">
        <ele>652.3</ele>
        <time>2019-03-03T17:47:58Z</time>
      </trkpt>
      <trkpt lat="43.27881" lon="-1.44248">
        <ele>665</ele>
        <time>2019-03-03T17:47:58Z</time>
      </trkpt>
      <trkpt lat="43.27748" lon="-1.44261">
        <ele>683.9</ele>
        <time>2019-03-03T17:47:58Z</time>
      </trkpt>
      <trkpt lat="43.2761" lon="-1.44272">
        <ele>669.6</ele>
        <time>2019-03-03T17:47:58Z</time>
      </trkpt>
      <trkpt lat="43.27466" lon="-1.44369">
        <ele>652.1</ele>
        <time>2019-03-03T17:47:58Z</time>
      </trkpt>
      <trkpt lat="43.27339" lon="-1.44459">
        <ele>654</ele>
        <time>2019-03-03T17:47:58Z</time>
      </trkpt>
      <trkpt lat="43.27293" lon="-1.44504">
        <ele>659.1</ele>
        <time>2019-03-03T17:47:58Z</time>
      </trkpt>
      <trkpt lat="43.26949" lon="-1.44596">
        <ele>651.6</ele>
        <time>2019-03-03T17:47:58Z</time>
      </trkpt>
      <trkpt lat="43.26915" lon="-1.44612">
        <ele>649.1</ele>
        <time>2019-03-03T17:47:58Z</time>
      </trkpt>
      <trkpt lat="43.26989" lon="-1.44665">
        <ele>627.1</ele>
        <time>2019-03-03T17:47:58Z</time>
      </trkpt>
      <trkpt lat="43.27097" lon="-1.44646">
        <ele>649.3</ele>
        <time>2019-03-03T17:47:58Z</time>
      </trkpt>
      <trkpt lat="43.2721" lon="-1.44686">
        <ele>642.5</ele>
        <time>2019-03-03T17:47:58Z</time>
      </trkpt>
      <trkpt lat="43.27308" lon="-1.44797">
        <ele>611.1</ele>
        <time>2019-03-03T17:47:58Z</time>
      </trkpt>
      <trkpt lat="43.2732" lon="-1.45071">
        <ele>555.4</ele>
        <time>2019-03-03T17:47:58Z</time>
      </trkpt>
      <trkpt lat="43.2733" lon="-1.45163">
        <ele>526</ele>
        <time>2019-03-03T17:47:58Z</time>
      </trkpt>
      <trkpt lat="43.27418" lon="-1.45485">
        <ele>482</ele>
        <time>2019-03-03T17:47:58Z</time>
      </trkpt>
      <trkpt lat="43.27543" lon="-1.46248">
        <ele>398.4</ele>
        <time>2019-03-03T17:47:58Z</time>
      </trkpt>
      <trkpt lat="43.27578" lon="-1.46559">
        <ele>384.7</ele>
        <time>2019-03-03T17:47:58Z</time>
      </trkpt>
      <trkpt lat="43.27624" lon="-1.46768">
        <ele>346.4</ele>
        <time>2019-03-03T17:47:58Z</time>
      </trkpt>
      <trkpt lat="43.27754" lon="-1.46939">
        <ele>332.4</ele>
        <time>2019-03-03T17:47:58Z</time>
      </trkpt>
      <trkpt lat="43.27843" lon="-1.47166">
        <ele>317.7</ele>
        <time>2019-03-03T17:47:58Z</time>
      </trkpt>
      <trkpt lat="43.27895" lon="-1.47502">
        <ele>278.7</ele>
        <time>2019-03-03T17:47:58Z</time>
      </trkpt>
      <trkpt lat="43.27939" lon="-1.47591">
        <ele>267.8</ele>
        <time>2019-03-03T17:47:58Z</time>
      </trkpt>
      <trkpt lat="43.27973" lon="-1.4756">
        <ele>260.4</ele>
        <time>2019-03-03T17:47:58Z</time>
      </trkpt>
      <trkpt lat="43.28071" lon="-1.47589">
        <ele>231.5</ele>
        <time>2019-03-03T17:47:58Z</time>
      </trkpt>
      <trkpt lat="43.28105" lon="-1.47573">
        <ele>214.2</ele>
        <time>2019-03-03T17:47:58Z</time>
      </trkpt>
      <trkpt lat="43.28161" lon="-1.47678">
        <ele>184.9</ele>
        <time>2019-03-03T17:47:58Z</time>
      </trkpt>
      <trkpt lat="43.28191" lon="-1.47773">
        <ele>170.8</ele>
        <time>2019-03-03T17:47:58Z</time>
      </trkpt>
      <trkpt lat="43.28187" lon="-1.4791">
        <ele>154</ele>
        <time>2019-03-03T17:47:58Z</time>
      </trkpt>
      <trkpt lat="43.28253" lon="-1.47857">
        <ele>135.9</ele>
        <time>2019-03-03T17:47:58Z</time>
      </trkpt>
      <trkpt lat="43.28315" lon="-1.47763">
        <ele>137.3</ele>
        <time>2019-03-03T17:47:58Z</time>
      </trkpt>
      <trkpt lat="43.28322" lon="-1.47538">
        <ele>146.2</ele>
        <time>2019-03-03T17:47:58Z</time>
      </trkpt>
      <trkpt lat="43.28425" lon="-1.47737">
        <ele>172</ele>
        <time>2019-03-03T17:47:58Z</time>
      </trkpt>
      <trkpt lat="43.28345" lon="-1.47961">
        <ele>156.8</ele>
        <time>2019-03-03T17:47:58Z</time>
      </trkpt>
      <trkpt lat="43.28399" lon="-1.48048">
        <ele>166.8</ele>
        <time>2019-03-03T17:47:58Z</time>
      </trkpt>
      <trkpt lat="43.28394" lon="-1.48">
        <ele>171.3</ele>
        <time>2019-03-03T17:47:58Z</time>
      </trkpt>
      <trkpt lat="43.28436" lon="-1.48006">
        <ele>181.2</ele>
        <time>2019-03-03T17:47:58Z</time>
      </trkpt>
      <trkpt lat="43.28434" lon="-1.47952">
        <ele>187</ele>
        <time>2019-03-03T17:47:58Z</time>
      </trkpt>
      <trkpt lat="43.28569" lon="-1.47981">
        <ele>214.3</ele>
        <time>2019-03-03T17:47:58Z</time>
      </trkpt>
      <trkpt lat="43.28546" lon="-1.479">
        <ele>220.8</ele>
        <time>2019-03-03T17:47:58Z</time>
      </trkpt>
      <trkpt lat="43.28644" lon="-1.4791">
        <ele>247.9</ele>
        <time>2019-03-03T17:47:58Z</time>
      </trkpt>
      <trkpt lat="43.28637" lon="-1.47801">
        <ele>248.3</ele>
        <time>2019-03-03T17:47:58Z</time>
      </trkpt>
      <trkpt lat="43.28728" lon="-1.47792">
        <ele>280</ele>
        <time>2019-03-03T17:47:58Z</time>
      </trkpt>
      <trkpt lat="43.28721" lon="-1.4784">
        <ele>282.1</ele>
        <time>2019-03-03T17:47:58Z</time>
      </trkpt>
      <trkpt lat="43.28775" lon="-1.47923">
        <ele>308.4</ele>
        <time>2019-03-03T17:47:58Z</time>
      </trkpt>
      <trkpt lat="43.28826" lon="-1.48234">
        <ele>269.5</ele>
        <time>2019-03-03T17:47:58Z</time>
      </trkpt>
      <trkpt lat="43.28891" lon="-1.47974">
        <ele>341.5</ele>
        <time>2019-03-03T17:47:58Z</time>
      </trkpt>
      <trkpt lat="43.28943" lon="-1.47679">
        <ele>317.7</ele>
        <time>2019-03-03T17:47:58Z</time>
      </trkpt>
      <trkpt lat="43.29064" lon="-1.47724">
        <ele>351.1</ele>
        <time>2019-03-03T17:47:58Z</time>
      </trkpt>
      <trkpt lat="43.29306" lon="-1.47487">
        <ele>334.7</ele>
        <time>2019-03-03T17:47:58Z</time>
      </trkpt>
      <trkpt lat="43.29467" lon="-1.47317">
        <ele>309.2</ele>
        <time>2019-03-03T17:47:58Z</time>
      </trkpt>
      <trkpt lat="43.29519" lon="-1.4724">
        <ele>320</ele>
        <time>2019-03-03T17:47:58Z</time>
      </trkpt>
      <trkpt lat="43.29628" lon="-1.47093">
        <ele>350.3</ele>
        <time>2019-03-03T17:47:58Z</time>
      </trkpt>
      <trkpt lat="43.29719" lon="-1.47038">
        <ele>373.9</ele>
        <time>2019-03-03T17:47:58Z</time>
      </trkpt>
      <trkpt lat="43.2999" lon="-1.4701">
        <ele>445.8</ele>
        <time>2019-03-03T17:47:58Z</time>
      </trkpt>
      <trkpt lat="43.30137" lon="-1.47109">
        <ele>472.3</ele>
        <time>2019-03-03T17:47:58Z</time>
      </trkpt>
      <trkpt lat="43.30155" lon="-1.47179">
        <ele>473.7</ele>
        <time>2019-03-03T17:47:58Z</time>
      </trkpt>
      <trkpt lat="43.30081" lon="-1.4733">
        <ele>454.8</ele>
        <time>2019-03-03T17:47:58Z</time>
      </trkpt>
      <trkpt lat="43.30067" lon="-1.47471">
        <ele>430.3</ele>
        <time>2019-03-03T17:47:58Z</time>
      </trkpt>
      <trkpt lat="43.30363" lon="-1.47487">
        <ele>477.1</ele>
        <time>2019-03-03T17:47:58Z</time>
      </trkpt>
      <trkpt lat="43.3037" lon="-1.47596">
        <ele>457.6</ele>
        <time>2019-03-03T17:47:58Z</time>
      </trkpt>
      <trkpt lat="43.30417" lon="-1.47641">
        <ele>469.2</ele>
        <time>2019-03-03T17:47:58Z</time>
      </trkpt>
      <trkpt lat="43.30482" lon="-1.4806">
        <ele>381.8</ele>
        <time>2019-03-03T17:47:58Z</time>
      </trkpt>
      <trkpt lat="43.30337" lon="-1.48233">
        <ele>374.6</ele>
        <time>2019-03-03T17:47:58Z</time>
      </trkpt>
      <trkpt lat="43.30438" lon="-1.48272">
        <ele>360.2</ele>
        <time>2019-03-03T17:47:58Z</time>
      </trkpt>
      <trkpt lat="43.30499" lon="-1.48411">
        <ele>347.5</ele>
        <time>2019-03-03T17:47:58Z</time>
      </trkpt>
      <trkpt lat="43.30416" lon="-1.48337">
        <ele>353.7</ele>
        <time>2019-03-03T17:47:58Z</time>
      </trkpt>
      <trkpt lat="43.3038" lon="-1.48451">
        <ele>337</ele>
        <time>2019-03-03T17:47:58Z</time>
      </trkpt>
      <trkpt lat="43.30395" lon="-1.48609">
        <ele>312.1</ele>
        <time>2019-03-03T17:47:58Z</time>
      </trkpt>
      <trkpt lat="43.30312" lon="-1.48713">
        <ele>285.9</ele>
        <time>2019-03-03T17:47:58Z</time>
      </trkpt>
      <trkpt lat="43.30352" lon="-1.48792">
        <ele>269.6</ele>
        <time>2019-03-03T17:47:58Z</time>
      </trkpt>
      <trkpt lat="43.30423" lon="-1.48821">
        <ele>255.6</ele>
        <time>2019-03-03T17:47:58Z</time>
      </trkpt>
      <trkpt lat="43.3042" lon="-1.48769">
        <ele>267.2</ele>
        <time>2019-03-03T17:47:58Z</time>
      </trkpt>
      <trkpt lat="43.30528" lon="-1.48815">
        <ele>227.3</ele>
        <time>2019-03-03T17:47:58Z</time>
      </trkpt>
      <trkpt lat="43.30656" lon="-1.48791">
        <ele>207.1</ele>
        <time>2019-03-03T17:47:58Z</time>
      </trkpt>
      <trkpt lat="43.30796" lon="-1.48745">
        <ele>198.7</ele>
        <time>2019-03-03T17:47:58Z</time>
      </trkpt>
      <trkpt lat="43.3083" lon="-1.48634">
        <ele>205.1</ele>
        <time>2019-03-03T17:47:58Z</time>
      </trkpt>
      <trkpt lat="43.30841" lon="-1.485">
        <ele>220.7</ele>
        <time>2019-03-03T17:47:58Z</time>
      </trkpt>
      <trkpt lat="43.3074" lon="-1.48277">
        <ele>282.3</ele>
        <time>2019-03-03T17:47:58Z</time>
      </trkpt>
      <trkpt lat="43.30922" lon="-1.48258">
        <ele>286</ele>
        <time>2019-03-03T17:47:58Z</time>
      </trkpt>
      <trkpt lat="43.30966" lon="-1.48178">
        <ele>304</ele>
        <time>2019-03-03T17:47:58Z</time>
      </trkpt>
      <trkpt lat="43.31012" lon="-1.482">
        <ele>298.4</ele>
        <time>2019-03-03T17:47:58Z</time>
      </trkpt>
      <trkpt lat="43.31043" lon="-1.48152">
        <ele>317.2</ele>
        <time>2019-03-03T17:47:58Z</time>
      </trkpt>
      <trkpt lat="43.31107" lon="-1.48178">
        <ele>316.9</ele>
        <time>2019-03-03T17:47:58Z</time>
      </trkpt>
      <trkpt lat="43.3116" lon="-1.48262">
        <ele>300.3</ele>
        <time>2019-03-03T17:47:58Z</time>
      </trkpt>
      <trkpt lat="43.31241" lon="-1.48395">
        <ele>254.4</ele>
        <time>2019-03-03T17:47:58Z</time>
      </trkpt>
      <trkpt lat="43.3129" lon="-1.48363">
        <ele>253</ele>
        <time>2019-03-03T17:47:58Z</time>
      </trkpt>
      <trkpt lat="43.31366" lon="-1.48268">
        <ele>258</ele>
        <time>2019-03-03T17:47:58Z</time>
      </trkpt>
      <trkpt lat="43.31444" lon="-1.481">
        <ele>259.6</ele>
        <time>2019-03-03T17:47:58Z</time>
      </trkpt>
      <trkpt lat="43.31435" lon="-1.47915">
        <ele>283.8</ele>
        <time>2019-03-03T17:47:58Z</time>
      </trkpt>
      <trkpt lat="43.31584" lon="-1.47885">
        <ele>268.1</ele>
        <time>2019-03-03T17:47:58Z</time>
      </trkpt>
      <trkpt lat="43.31634" lon="-1.47812">
        <ele>276.7</ele>
        <time>2019-03-03T17:47:58Z</time>
      </trkpt>
      <trkpt lat="43.31847" lon="-1.47798">
        <ele>244.7</ele>
        <time>2019-03-03T17:47:58Z</time>
      </trkpt>
      <trkpt lat="43.31989" lon="-1.47712">
        <ele>242.7</ele>
        <time>2019-03-03T17:47:58Z</time>
      </trkpt>
      <trkpt lat="43.32321" lon="-1.47473">
        <ele>216.5</ele>
        <time>2019-03-03T17:47:58Z</time>
      </trkpt>
      <trkpt lat="43.32635" lon="-1.4724">
        <ele>191.8</ele>
        <time>2019-03-03T17:47:58Z</time>
      </trkpt>
      <trkpt lat="43.32489" lon="-1.47101">
        <ele>181.5</ele>
        <time>2019-03-03T17:47:58Z</time>
      </trkpt>
      <trkpt lat="43.323" lon="-1.47145">
        <ele>198.6</ele>
        <time>2019-03-03T17:47:58Z</time>
      </trkpt>
      <trkpt lat="43.32429" lon="-1.4697">
        <ele>178.1</ele>
        <time>2019-03-03T17:47:58Z</time>
      </trkpt>
      <trkpt lat="43.32489" lon="-1.4682">
        <ele>181</ele>
        <time>2019-03-03T17:47:58Z</time>
      </trkpt>
      <trkpt lat="43.32485" lon="-1.46727">
        <ele>173.7</ele>
        <time>2019-03-03T17:47:58Z</time>
      </trkpt>
      <trkpt lat="43.32455" lon="-1.46609">
        <ele>162.4</ele>
        <time>2019-03-03T17:47:58Z</time>
      </trkpt>
      <trkpt lat="43.32486" lon="-1.4656">
        <ele>158.3</ele>
        <time>2019-03-03T17:47:58Z</time>
      </trkpt>
      <trkpt lat="43.32531" lon="-1.46565">
        <ele>153.6</ele>
        <time>2019-03-03T17:47:58Z</time>
      </trkpt>
      <trkpt lat="43.3255" lon="-1.46629">
        <ele>155.8</ele>
        <time>2019-03-03T17:47:58Z</time>
      </trkpt>
      <trkpt lat="43.32625" lon="-1.46665">
        <ele>157.4</ele>
        <time>2019-03-03T17:47:58Z</time>
      </trkpt>
      <trkpt lat="43.32665" lon="-1.46558">
        <ele>158.2</ele>
        <time>2019-03-03T17:47:58Z</time>
      </trkpt>
      <trkpt lat="43.32684" lon="-1.46402">
        <ele>156.7</ele>
        <time>2019-03-03T17:47:58Z</time>
      </trkpt>
      <trkpt lat="43.32827" lon="-1.46239">
        <ele>158.1</ele>
        <time>2019-03-03T17:47:58Z</time>
      </trkpt>
      <trkpt lat="43.32789" lon="-1.46028">
        <ele>139.2</ele>
        <time>2019-03-03T17:47:58Z</time>
      </trkpt>
      <trkpt lat="43.32891" lon="-1.45891">
        <ele>118.2</ele>
        <time>2019-03-03T17:47:58Z</time>
      </trkpt>
      <trkpt lat="43.33115" lon="-1.45797">
        <ele>125.9</ele>
        <time>2019-03-03T17:47:58Z</time>
      </trkpt>
      <trkpt lat="43.3323" lon="-1.45753">
        <ele>137.3</ele>
        <time>2019-03-03T17:47:58Z</time>
      </trkpt>
      <trkpt lat="43.33289" lon="-1.45335">
        <ele>106.2</ele>
        <time>2019-03-03T17:47:58Z</time>
      </trkpt>
      <trkpt lat="43.33658" lon="-1.45185">
        <ele>81.6</ele>
        <time>2019-03-03T17:47:58Z</time>
      </trkpt>
      <trkpt lat="43.33825" lon="-1.45177">
        <ele>67.8</ele>
        <time>2019-03-03T17:47:58Z</time>
      </trkpt>
      <trkpt lat="43.3367" lon="-1.44631">
        <ele>78</ele>
        <time>2019-03-03T17:47:58Z</time>
      </trkpt>
      <trkpt lat="43.33915" lon="-1.44687">
        <ele>76.3</ele>
        <time>2019-03-03T17:47:58Z</time>
      </trkpt>
    </trkseg>
  </trk>
</gpx>